Time,TemperatureF,DewpointF,PressureIn,WindDirection,WindDirectionDegrees,WindSpeedMPH,WindSpeedGustMPH,Humidity,HourlyPrecipIn,Conditions,Clouds,dailyrainin,SoftwareType,DateUTC
2018-02-22 00:02:00,16.5,12.5,30.31,ESE,103,0.0,0.0,84,0.00,RA,,0.00,WeatherDisplay:10.37,2018-02-22 08:02:00,
2018-02-22 00:07:00,16.5,12.5,30.31,ESE,103,0.0,0.0,84,0.00,RA,,0.00,WeatherDisplay:10.37,2018-02-22 08:07:00,
2018-02-22 00:12:00,16.5,14.6,30.34,ESE,103,0.0,0.0,92,0.00,CLR,,0.00,WeatherDisplay:10.37,2018-02-22 08:12:00,
2018-02-22 00:17:00,16.4,12.4,30.33,ESE,103,0.0,0.0,84,0.00,CLR,,0.00,WeatherDisplay:10.37,2018-02-22 08:17:00,
2018-02-22 00:22:00,16.4,12.7,30.33,ESE,103,0.0,0.0,85,0.00,CLR,,0.00,WeatherDisplay:10.37,2018-02-22 08:22:00,
2018-02-22 00:27:00,16.6,13.1,30.33,ESE,103,0.0,0.0,86,0.00,CLR,,0.00,WeatherDisplay:10.37,2018-02-22 08:27:00,
2018-02-22 00:32:00,16.8,13.3,30.33,ESE,103,0.0,0.0,86,0.00,CLR,,0.00,WeatherDisplay:10.37,2018-02-22 08:32:00,
2018-02-22 00:37:00,17.0,13.5,30.33,ESE,103,0.0,0.0,86,0.00,CLR,,0.00,WeatherDisplay:10.37,2018-02-22 08:37:00,
2018-02-22 00:42:00,17.1,13.6,30.33,ESE,103,0.0,0.0,86,0.00,CLR,,0.00,WeatherDisplay:10.37,2018-02-22 08:42:00,
2018-02-22 00:47:00,17.1,13.6,30.33,ESE,103,0.0,0.0,86,0.00,CLR,,0.00,WeatherDisplay:10.37,2018-02-22 08:47:00,
2018-02-22 00:52:00,17.1,13.9,30.34,ESE,103,0.0,0.0,87,0.00,CLR,,0.00,WeatherDisplay:10.37,2018-02-22 08:52:00,
2018-02-22 00:57:00,16.7,13.2,30.34,ESE,103,0.0,0.0,86,0.00,CLR,,0.00,WeatherDisplay:10.37,2018-02-22 08:57:00,
2018-02-22 01:02:00,16.6,13.4,30.33,ESE,103,0.0,0.0,87,0.00,CLR,,0.00,WeatherDisplay:10.37,2018-02-22 09:02:00,
2018-02-22 01:07:00,16.6,13.4,30.33,ESE,103,0.0,0.0,87,0.00,CLR,,0.00,WeatherDisplay:10.37,2018-02-22 09:07:00,
2018-02-22 01:12:00,16.5,13.3,30.31,ESE,103,0.0,0.0,87,0.00,CLR,,0.00,WeatherDisplay:10.37,2018-02-22 09:12:00,
2018-02-22 01:17:00,16.4,13.2,30.32,ESE,103,0.0,0.0,87,0.00,CLR,,0.00,WeatherDisplay:10.37,2018-02-22 09:17:00,
2018-02-22 01:22:00,16.4,13.5,30.32,ESE,103,0.0,0.0,88,0.00,CLR,,0.00,WeatherDisplay:10.37,2018-02-22 09:22:00,
2018-02-22 01:28:00,16.5,13.6,30.31,ESE,103,0.0,0.0,88,0.00,CLR,,0.00,WeatherDisplay:10.37,2018-02-22 09:28:00,
2018-02-22 01:33:00,16.5,13.6,30.31,ESE,103,0.0,0.0,88,0.00,CLR,,0.00,WeatherDisplay:10.37,2018-02-22 09:33:00,
2018-02-22 01:38:00,16.5,13.6,30.31,ESE,103,0.0,0.0,88,0.00,CLR,,0.00,WeatherDisplay:10.37,2018-02-22 09:38:00,
2018-02-22 01:43:00,16.3,13.4,30.32,ESE,103,0.0,0.0,88,0.00,CLR,,0.00,WeatherDisplay:10.37,2018-02-22 09:43:00,
2018-02-22 01:48:00,16.2,13.3,30.32,ESE,103,0.0,0.0,88,0.00,CLR,,0.00,WeatherDisplay:10.37,2018-02-22 09:48:00,
2018-02-22 01:53:00,15.9,13.0,30.32,ESE,103,0.0,0.0,88,0.00,CLR,,0.00,WeatherDisplay:10.37,2018-02-22 09:53:00,
2018-02-22 01:58:00,15.9,13.0,30.32,ESE,103,0.0,0.0,88,0.00,CLR,,0.00,WeatherDisplay:10.37,2018-02-22 09:58:00,
2018-02-22 02:03:00,15.8,13.1,30.31,ESE,103,0.0,0.0,89,0.00,CLR,,0.00,WeatherDisplay:10.37,2018-02-22 10:03:00,
2018-02-22 02:08:00,15.6,12.7,30.31,ESE,103,0.0,0.0,88,0.00,CLR,,0.00,WeatherDisplay:10.37,2018-02-22 10:08:00,
2018-02-22 02:13:00,15.5,12.8,30.32,ESE,103,0.0,0.0,89,0.00,CLR,,0.00,WeatherDisplay:10.37,2018-02-22 10:13:00,
2018-02-22 02:18:00,15.3,12.4,30.33,ESE,103,0.0,0.0,88,0.00,CLR,,0.00,WeatherDisplay:10.37,2018-02-22 10:18:00,
2018-02-22 02:23:00,15.0,12.1,30.33,ESE,103,0.0,0.0,88,0.00,CLR,,0.00,WeatherDisplay:10.37,2018-02-22 10:23:00,
2018-02-22 02:28:00,15.0,12.3,30.33,ESE,103,0.0,0.0,89,0.00,CLR,,0.00,WeatherDisplay:10.37,2018-02-22 10:28:00,
2018-02-22 02:33:00,14.8,12.1,30.33,ESE,103,0.0,0.0,89,0.00,CLR,,0.00,WeatherDisplay:10.37,2018-02-22 10:33:00,
2018-02-22 02:38:00,14.3,11.4,30.33,ESE,103,0.0,0.0,88,0.00,CLR,,0.00,WeatherDisplay:10.37,2018-02-22 10:38:00,
2018-02-22 02:43:00,14.0,11.4,30.33,ESE,103,0.0,0.0,89,0.00,CLR,,0.00,WeatherDisplay:10.37,2018-02-22 10:43:00,
2018-02-22 02:48:00,13.9,11.3,30.33,ESE,103,0.0,0.0,89,0.00,CLR,,0.00,WeatherDisplay:10.37,2018-02-22 10:48:00,
2018-02-22 02:53:00,13.8,11.2,30.33,ESE,103,0.0,0.0,89,0.00,CLR,,0.00,WeatherDisplay:10.37,2018-02-22 10:53:00,
2018-02-22 02:58:00,13.9,11.3,30.33,ESE,103,0.0,0.0,89,0.00,CLR,,0.00,WeatherDisplay:10.37,2018-02-22 10:58:00,
2018-02-22 03:03:00,13.9,11.5,30.32,ESE,103,0.0,0.0,90,0.00,CLR,,0.00,WeatherDisplay:10.37,2018-02-22 11:03:00,
2018-02-22 03:08:00,14.0,11.6,30.33,ESE,103,0.0,0.0,90,0.00,CLR,,0.00,WeatherDisplay:10.37,2018-02-22 11:08:00,
2018-02-22 03:13:00,14.1,11.7,30.33,ESE,103,0.0,0.0,90,0.00,CLR,,0.00,WeatherDisplay:10.37,2018-02-22 11:13:00,
2018-02-22 03:18:00,14.2,11.8,30.32,ESE,103,0.0,0.0,90,0.00,CLR,,0.00,WeatherDisplay:10.37,2018-02-22 11:18:00,
2018-02-22 03:23:00,14.4,12.0,30.32,ESE,103,0.0,0.0,90,0.00,CLR,,0.00,WeatherDisplay:10.37,2018-02-22 11:23:00,
2018-02-22 03:28:00,14.5,12.1,30.32,ESE,103,0.0,0.0,90,0.00,CLR,,0.00,WeatherDisplay:10.37,2018-02-22 11:28:00,
2018-02-22 03:33:00,14.6,12.2,30.32,ESE,103,0.0,0.0,90,0.00,CLR,,0.00,WeatherDisplay:10.37,2018-02-22 11:33:00,
2018-02-22 03:38:00,14.5,12.1,30.33,ESE,103,0.0,0.0,90,0.00,CLR,,0.00,WeatherDisplay:10.37,2018-02-22 11:38:00,
2018-02-22 03:43:00,14.4,12.0,30.33,ESE,103,0.0,0.0,90,0.00,CLR,,0.00,WeatherDisplay:10.37,2018-02-22 11:43:00,
2018-02-22 03:48:00,14.2,11.8,30.33,ESE,103,0.0,0.0,90,0.00,CLR,,0.00,WeatherDisplay:10.37,2018-02-22 11:48:00,
2018-02-22 03:58:00,14.0,11.6,30.32,ESE,103,0.0,0.0,90,0.00,CLR,,0.00,WeatherDisplay:10.37,2018-02-22 11:58:00,
2018-02-22 04:03:00,13.8,11.4,30.33,ESE,103,0.0,0.0,90,0.00,CLR,,0.00,WeatherDisplay:10.37,2018-02-22 12:03:00,
2018-02-22 04:08:00,13.6,11.2,30.33,ESE,103,0.0,0.0,90,0.00,CLR,,0.00,WeatherDisplay:10.37,2018-02-22 12:08:00,
2018-02-22 04:13:00,13.5,11.1,30.33,ESE,103,0.0,0.0,90,0.00,CLR,,0.00,WeatherDisplay:10.37,2018-02-22 12:13:00,
2018-02-22 04:18:00,13.5,11.1,30.33,ESE,103,0.0,0.0,90,0.00,CLR,,0.00,WeatherDisplay:10.37,2018-02-22 12:18:00,
2018-02-22 04:23:00,13.4,11.0,30.33,ESE,103,0.0,0.0,90,0.00,CLR,,0.00,WeatherDisplay:10.37,2018-02-22 12:23:00,
2018-02-22 04:28:00,13.4,11.0,30.33,ESE,103,0.0,0.0,90,0.00,CLR,,0.00,WeatherDisplay:10.37,2018-02-22 12:28:00,
2018-02-22 04:33:00,13.4,11.0,30.34,ESE,103,0.0,0.0,90,0.00,CLR,,0.00,WeatherDisplay:10.37,2018-02-22 12:33:00,
2018-02-22 04:38:00,13.4,11.0,30.33,ESE,103,0.0,0.0,90,0.00,CLR,,0.00,WeatherDisplay:10.37,2018-02-22 12:38:00,
2018-02-22 04:43:00,13.5,11.1,30.33,ESE,103,0.0,0.0,90,0.00,CLR,,0.00,WeatherDisplay:10.37,2018-02-22 12:43:00,
2018-02-22 04:48:00,13.7,11.3,30.33,ESE,103,0.0,0.0,90,0.00,CLR,,0.00,WeatherDisplay:10.37,2018-02-22 12:48:00,
2018-02-22 04:53:00,13.9,11.5,30.33,ESE,103,0.0,0.0,90,0.00,CLR,,0.00,WeatherDisplay:10.37,2018-02-22 12:53:00,
2018-02-22 04:58:00,14.1,12.0,30.32,ESE,103,0.0,0.0,91,0.00,CLR,,0.00,WeatherDisplay:10.37,2018-02-22 12:58:00,
2018-02-22 05:03:00,14.2,12.1,30.32,ESE,103,0.0,0.0,91,0.00,CLR,,0.00,WeatherDisplay:10.37,2018-02-22 13:03:00,
2018-02-22 05:08:00,14.3,12.2,30.33,ESE,103,0.0,0.0,91,0.00,CLR,,0.00,WeatherDisplay:10.37,2018-02-22 13:08:00,
2018-02-22 05:13:00,13.8,11.4,30.33,ESE,103,3.5,3.5,90,0.00,CLR,,0.00,WeatherDisplay:10.37,2018-02-22 13:13:00,
2018-02-22 05:18:00,13.3,10.9,30.34,ESE,103,3.5,3.5,90,0.00,CLR,,0.00,WeatherDisplay:10.37,2018-02-22 13:18:00,
2018-02-22 05:23:00,13.3,10.9,30.34,WSW,242,3.5,3.5,90,0.00,CLR,,0.00,WeatherDisplay:10.37,2018-02-22 13:23:00,
2018-02-22 05:28:00,13.3,10.9,30.35,WSW,243,3.5,3.5,90,0.00,CLR,,0.00,WeatherDisplay:10.37,2018-02-22 13:28:00,
2018-02-22 05:33:00,13.5,11.4,30.34,WSW,243,2.3,2.3,91,0.00,CLR,,0.00,WeatherDisplay:10.37,2018-02-22 13:33:00,
2018-02-22 05:38:00,13.7,11.6,30.34,WSW,243,0.0,0.0,91,0.00,CLR,,0.00,WeatherDisplay:10.37,2018-02-22 13:38:00,
2018-02-22 05:43:00,13.9,11.5,30.33,WSW,243,3.5,3.5,90,0.00,CLR,,0.00,WeatherDisplay:10.37,2018-02-22 13:43:00,
2018-02-22 05:48:00,13.9,11.5,30.34,WSW,243,0.0,0.0,90,0.00,CLR,,0.00,WeatherDisplay:10.37,2018-02-22 13:48:00,
2018-02-22 05:53:00,13.9,11.5,30.33,WSW,242,0.0,0.0,90,0.00,CLR,,0.00,WeatherDisplay:10.37,2018-02-22 13:53:00,
2018-02-22 05:58:00,14.0,11.6,30.34,WSW,242,0.0,0.0,90,0.00,CLR,,0.00,WeatherDisplay:10.37,2018-02-22 13:58:00,
2018-02-22 06:03:00,14.0,11.6,30.34,WSW,243,0.0,0.0,90,0.00,CLR,,0.00,WeatherDisplay:10.37,2018-02-22 14:03:00,
2018-02-22 06:08:00,14.0,11.6,30.34,WSW,243,0.0,0.0,90,0.00,CLR,,0.00,WeatherDisplay:10.37,2018-02-22 14:08:00,
2018-02-22 06:13:00,14.0,11.6,30.34,WSW,242,0.0,0.0,90,0.00,CLR,,0.00,WeatherDisplay:10.37,2018-02-22 14:13:00,
2018-02-22 06:18:00,14.0,11.6,30.35,WSW,243,0.0,0.0,90,0.00,CLR,,0.00,WeatherDisplay:10.37,2018-02-22 14:18:00,
2018-02-22 06:23:00,14.0,11.6,30.35,WSW,243,0.0,0.0,90,0.00,CLR,,0.00,WeatherDisplay:10.37,2018-02-22 14:23:00,
2018-02-22 06:28:00,13.7,11.3,30.35,WSW,243,0.0,0.0,90,0.00,CLR,,0.00,WeatherDisplay:10.37,2018-02-22 14:28:00,
2018-02-22 06:33:00,13.6,11.2,30.35,WSW,242,0.0,0.0,90,0.00,CLR,,0.00,WeatherDisplay:10.37,2018-02-22 14:33:00,
2018-02-22 06:49:00,14.4,12.3,30.35,WSW,242,0.0,0.0,91,0.00,CLR,,0.00,WeatherDisplay:10.37,2018-02-22 14:49:00,
2018-02-22 06:54:00,14.6,12.2,30.36,WSW,243,0.0,0.0,90,0.00,CLR,,0.00,WeatherDisplay:10.37,2018-02-22 14:54:00,
2018-02-22 06:59:00,14.7,12.3,30.36,WSW,243,0.0,0.0,90,0.00,CLR,,0.00,WeatherDisplay:10.37,2018-02-22 14:59:00,
2018-02-22 07:04:00,14.8,12.6,30.36,WSW,243,0.0,0.0,91,0.00,CLR,,0.00,WeatherDisplay:10.37,2018-02-22 15:04:00,
2018-02-22 07:09:00,15.0,12.6,30.36,WSW,243,2.3,2.3,90,0.00,CLR,,0.00,WeatherDisplay:10.37,2018-02-22 15:09:00,
2018-02-22 07:14:00,15.1,12.7,30.36,WSW,243,5.0,5.0,90,0.00,CLR,,0.00,WeatherDisplay:10.37,2018-02-22 15:14:00,
2018-02-22 07:19:00,15.4,13.2,30.36,WSW,244,3.5,3.5,91,0.00,CLR,,0.00,WeatherDisplay:10.37,2018-02-22 15:19:00,
2018-02-22 07:24:00,15.6,13.4,30.35,WSW,244,1.2,1.2,91,0.00,CLR,,0.00,WeatherDisplay:10.37,2018-02-22 15:24:00,
2018-02-22 07:29:00,15.8,13.6,30.35,WSW,244,0.0,0.0,91,0.00,CLR,,0.00,WeatherDisplay:10.37,2018-02-22 15:29:00,
2018-02-22 07:34:00,15.9,13.7,30.35,WSW,244,0.0,0.0,91,0.00,CLR,,0.00,WeatherDisplay:10.37,2018-02-22 15:34:00,
2018-02-22 07:39:00,16.0,13.8,30.35,WSW,244,0.0,0.0,91,0.00,CLR,,0.00,WeatherDisplay:10.37,2018-02-22 15:39:00,
2018-02-22 07:44:00,16.1,13.9,30.35,WSW,244,0.0,0.0,91,0.00,CLR,,0.00,WeatherDisplay:10.37,2018-02-22 15:44:00,
2018-02-22 07:49:00,16.1,13.9,30.35,WSW,244,2.3,0.0,91,0.00,CLR,,0.00,WeatherDisplay:10.37,2018-02-22 15:49:00,
2018-02-22 07:54:00,16.3,14.1,30.35,WSW,245,3.5,3.5,91,0.00,CLR,,0.00,WeatherDisplay:10.37,2018-02-22 15:54:00,
2018-02-22 07:59:00,16.3,14.1,30.35,WSW,245,3.5,3.5,91,0.00,CLR,,0.00,WeatherDisplay:10.37,2018-02-22 15:59:00,
2018-02-22 08:04:00,16.4,14.2,30.35,WSW,248,3.5,3.5,91,0.00,CLR,,0.00,WeatherDisplay:10.37,2018-02-22 16:04:00,
2018-02-22 08:09:00,16.3,14.1,30.35,WSW,256,4.0,4.0,91,0.00,CLR,,0.00,WeatherDisplay:10.37,2018-02-22 16:09:00,
2018-02-22 08:14:00,16.4,14.2,30.35,WSW,256,3.5,3.5,91,0.00,CLR,,0.00,WeatherDisplay:10.37,2018-02-22 16:14:00,
2018-02-22 08:19:00,16.4,14.2,30.35,West,263,3.5,0.0,91,0.00,CLR,,0.00,WeatherDisplay:10.37,2018-02-22 16:19:00,
2018-02-22 08:24:00,16.5,14.3,30.36,West,265,3.5,3.5,91,0.00,CLR,,0.00,WeatherDisplay:10.37,2018-02-22 16:24:00,
2018-02-22 08:29:00,16.7,14.5,30.36,West,266,4.6,4.6,91,0.00,CLR,,0.00,WeatherDisplay:10.37,2018-02-22 16:29:00,
2018-02-22 08:34:00,16.8,14.6,30.35,West,265,2.3,2.3,91,0.00,CLR,,0.00,WeatherDisplay:10.37,2018-02-22 16:34:00,
2018-02-22 08:39:00,16.8,14.6,30.36,West,266,4.6,4.6,91,0.00,CLR,,0.00,WeatherDisplay:10.37,2018-02-22 16:39:00,
2018-02-22 08:44:00,16.6,14.2,30.36,West,267,3.5,3.5,90,0.00,CLR,,0.00,WeatherDisplay:10.37,2018-02-22 16:44:00,
2018-02-22 08:49:00,16.5,14.3,30.36,West,267,3.5,3.5,91,0.00,CLR,,0.00,WeatherDisplay:10.37,2018-02-22 16:49:00,
2018-02-22 08:54:00,16.5,14.3,30.36,West,267,6.0,6.0,91,0.00,CLR,,0.00,WeatherDisplay:10.37,2018-02-22 16:54:00,
2018-02-22 08:59:00,16.6,14.4,30.36,West,268,9.0,9.0,91,0.00,CLR,,0.00,WeatherDisplay:10.37,2018-02-22 16:59:00,
2018-02-22 09:04:00,16.4,14.0,30.36,West,269,4.6,4.6,90,0.00,CLR,,0.00,WeatherDisplay:10.37,2018-02-22 17:04:00,
2018-02-22 09:09:00,16.5,14.3,30.36,West,271,3.5,3.5,91,0.00,CLR,,0.00,WeatherDisplay:10.37,2018-02-22 17:09:00,
2018-02-22 09:14:00,17.1,14.9,30.37,West,271,4.0,4.0,91,0.00,CLR,,0.00,WeatherDisplay:10.37,2018-02-22 17:14:00,
2018-02-22 09:19:00,17.3,15.1,30.37,West,271,1.2,1.3,91,0.00,CLR,,0.00,WeatherDisplay:10.37,2018-02-22 17:19:00,
2018-02-22 09:24:00,17.7,15.5,30.36,West,271,11.0,11.0,91,0.00,CLR,,0.00,WeatherDisplay:10.37,2018-02-22 17:24:00,
2018-02-22 09:29:00,17.2,14.8,30.38,West,271,6.9,6.9,90,0.00,CLR,,0.00,WeatherDisplay:10.37,2018-02-22 17:29:00,
2018-02-22 09:34:00,16.6,14.2,30.38,West,273,10.4,10.4,90,0.00,CLR,,0.00,WeatherDisplay:10.37,2018-02-22 17:34:00,
2018-02-22 09:39:00,16.8,14.6,30.38,West,273,2.3,2.3,91,0.00,CLR,,0.00,WeatherDisplay:10.37,2018-02-22 17:39:00,
2018-02-22 09:44:00,17.1,14.9,30.38,West,273,13.0,13.0,91,0.00,CLR,,0.00,WeatherDisplay:10.37,2018-02-22 17:44:00,
2018-02-22 09:49:00,16.8,14.6,30.38,West,274,4.6,4.6,91,0.00,CLR,,0.00,WeatherDisplay:10.37,2018-02-22 17:49:00,
2018-02-22 09:54:00,16.8,14.4,30.38,West,275,9.2,9.2,90,0.00,CLR,,0.00,WeatherDisplay:10.37,2018-02-22 17:54:00,
2018-02-22 09:59:00,16.6,14.2,30.38,West,273,10.0,10.0,90,0.00,CLR,,0.00,WeatherDisplay:10.37,2018-02-22 17:59:00,
2018-02-22 10:04:00,16.5,14.1,30.38,West,276,9.2,9.2,90,0.00,CLR,,0.00,WeatherDisplay:10.37,2018-02-22 18:04:00,
2018-02-22 10:09:00,16.7,14.5,30.38,West,274,12.7,12.7,91,0.00,CLR,,0.00,WeatherDisplay:10.37,2018-02-22 18:09:00,
2018-02-22 10:22:00,16.9,14.5,30.38,West,272,11.5,11.5,90,0.00,CLR,,0.00,WeatherDisplay:10.37,2018-02-22 18:22:00,
2018-02-22 10:27:00,16.8,14.4,30.38,West,271,12.7,12.7,90,0.00,CLR,,0.00,WeatherDisplay:10.37,2018-02-22 18:27:00,
2018-02-22 10:32:00,17.5,15.3,30.37,West,273,10.4,10.4,91,0.00,CLR,,0.00,WeatherDisplay:10.37,2018-02-22 18:32:00,
2018-02-22 10:37:00,17.7,15.3,30.37,West,276,8.1,8.1,90,0.00,CLR,,0.00,WeatherDisplay:10.37,2018-02-22 18:37:00,
2018-02-22 10:45:00,17.4,15.0,30.38,West,277,10.4,10.4,90,0.00,CLR,,0.00,WeatherDisplay:10.37,2018-02-22 18:45:00,
2018-02-22 10:50:00,17.3,14.9,30.39,West,276,11.5,11.5,90,0.00,CLR,,0.00,WeatherDisplay:10.37,2018-02-22 18:50:00,
2018-02-22 10:55:00,17.0,14.6,30.39,West,275,12.7,12.7,90,0.00,CLR,,0.00,WeatherDisplay:10.37,2018-02-22 18:55:00,
2018-02-22 11:00:00,17.5,15.3,30.38,West,277,3.5,3.5,91,0.00,CLR,,0.00,WeatherDisplay:10.37,2018-02-22 19:00:00,
2018-02-22 11:05:00,18.2,16.0,30.38,West,277,9.2,9.2,91,0.00,CLR,,0.00,WeatherDisplay:10.37,2018-02-22 19:05:00,
2018-02-22 11:10:00,18.6,16.2,30.38,West,277,8.1,8.1,90,0.00,CLR,,0.00,WeatherDisplay:10.37,2018-02-22 19:10:00,
2018-02-22 11:15:00,18.0,15.6,30.38,West,276,9.2,9.2,90,0.00,CLR,,0.00,WeatherDisplay:10.37,2018-02-22 19:15:00,
2018-02-22 11:20:00,18.0,15.6,30.38,West,276,3.5,3.5,90,0.00,CLR,,0.00,WeatherDisplay:10.37,2018-02-22 19:20:00,
2018-02-22 11:25:00,18.5,16.1,30.38,West,276,3.5,3.5,90,0.00,CLR,,0.00,WeatherDisplay:10.37,2018-02-22 19:25:00,
2018-02-22 11:30:00,19.4,17.2,30.37,West,276,2.3,2.3,91,0.00,CLR,,0.00,WeatherDisplay:10.37,2018-02-22 19:30:00,
2018-02-22 11:35:00,20.0,17.8,30.38,West,276,1.2,1.2,91,0.00,CLR,,0.00,WeatherDisplay:10.37,2018-02-22 19:35:00,
2018-02-22 11:40:00,20.0,17.5,30.37,West,276,3.5,3.5,90,0.00,CLR,,0.00,WeatherDisplay:10.37,2018-02-22 19:40:00,
2018-02-22 11:45:00,19.7,17.0,30.37,West,276,3.5,3.5,89,0.00,CLR,,0.00,WeatherDisplay:10.37,2018-02-22 19:45:00,
2018-02-22 11:50:00,20.1,17.6,30.37,West,276,3.5,3.5,90,0.00,CLR,,0.00,WeatherDisplay:10.37,2018-02-22 19:50:00,
2018-02-22 11:55:00,20.6,17.9,30.36,West,276,2.3,2.3,89,0.00,CLR,,0.00,WeatherDisplay:10.37,2018-02-22 19:55:00,
2018-02-22 12:00:00,20.6,17.9,30.36,NNW,331,6.9,6.9,89,0.00,CLR,,0.00,WeatherDisplay:10.37,2018-02-22 20:00:00,
2018-02-22 12:05:00,20.0,17.0,30.37,West,281,8.1,8.1,88,0.00,CLR,,0.00,WeatherDisplay:10.37,2018-02-22 20:05:00,
2018-02-22 12:10:00,19.2,16.2,30.37,WNW,288,3.5,3.5,88,0.00,CLR,,0.00,WeatherDisplay:10.37,2018-02-22 20:10:00,
2018-02-22 12:15:00,19.0,16.0,30.37,West,273,3.5,3.5,88,0.00,CLR,,0.00,WeatherDisplay:10.37,2018-02-22 20:15:00,
2018-02-22 12:20:00,18.6,15.6,30.37,West,279,6.9,6.9,88,0.00,CLR,,0.00,WeatherDisplay:10.37,2018-02-22 20:20:00,
2018-02-22 12:25:00,18.6,15.9,30.37,West,279,4.6,4.6,89,0.00,CLR,,0.00,WeatherDisplay:10.37,2018-02-22 20:25:00,
2018-02-22 12:30:00,18.2,15.5,30.38,West,279,9.2,9.2,89,0.00,CLR,,0.00,WeatherDisplay:10.37,2018-02-22 20:30:00,
2018-02-22 12:35:00,18.1,15.4,30.38,West,276,6.9,6.9,89,0.00,CLR,,0.00,WeatherDisplay:10.37,2018-02-22 20:35:00,
2018-02-22 12:40:00,18.3,15.6,30.38,WNW,290,4.6,4.6,89,0.00,CLR,,0.00,WeatherDisplay:10.37,2018-02-22 20:40:00,
2018-02-22 12:45:00,18.6,16.2,30.37,WNW,288,4.6,4.6,90,0.00,CLR,,0.00,WeatherDisplay:10.37,2018-02-22 20:45:00,
2018-02-22 12:50:00,19.1,16.7,30.37,WNW,287,3.5,0.0,90,0.00,CLR,,0.00,WeatherDisplay:10.37,2018-02-22 20:50:00,
2018-02-22 12:55:00,19.6,16.9,30.37,WNW,288,2.3,2.3,89,0.00,CLR,,0.00,WeatherDisplay:10.37,2018-02-22 20:55:00,
2018-02-22 13:00:00,19.3,16.3,30.37,WNW,294,3.5,3.5,88,0.00,CLR,,0.00,WeatherDisplay:10.37,2018-02-22 21:00:00,
2018-02-22 13:05:00,19.2,16.2,30.37,WNW,296,3.5,3.5,88,0.00,CLR,,0.00,WeatherDisplay:10.37,2018-02-22 21:05:00,
2018-02-22 13:10:00,19.1,16.1,30.37,WNW,298,3.5,3.5,88,0.00,CLR,,0.00,WeatherDisplay:10.37,2018-02-22 21:10:00,
2018-02-22 13:15:00,19.2,16.2,30.38,WNW,296,4.6,4.6,88,0.00,CLR,,0.00,WeatherDisplay:10.37,2018-02-22 21:15:00,
2018-02-22 13:20:00,19.2,16.2,30.38,WNW,296,3.5,3.5,88,0.00,CLR,,0.00,WeatherDisplay:10.37,2018-02-22 21:20:00,
2018-02-22 13:25:00,19.3,16.3,30.38,WNW,295,4.6,4.6,88,0.00,CLR,,0.00,WeatherDisplay:10.37,2018-02-22 21:25:00,
2018-02-22 13:30:00,19.7,16.7,30.37,WNW,296,3.5,3.5,88,0.00,CLR,,0.00,WeatherDisplay:10.37,2018-02-22 21:30:00,
2018-02-22 13:35:00,19.3,16.1,30.38,WNW,294,9.2,9.2,87,0.00,CLR,,0.00,WeatherDisplay:10.37,2018-02-22 21:35:00,
2018-02-22 13:40:00,18.9,15.9,30.38,West,281,3.5,3.5,88,0.00,CLR,,0.00,WeatherDisplay:10.37,2018-02-22 21:40:00,
2018-02-22 13:45:00,18.9,15.9,30.38,WNW,283,4.6,4.6,88,0.00,CLR,,0.00,WeatherDisplay:10.37,2018-02-22 21:45:00,